Location: Worth Mountain WMA
(34.9569°N, 81.4819°W)
Time: 06:49:31
(UTC-05:00)

Daily predictions for brighter satellites

Satellite Brightness Start Highest point End
(mag) Time Altitude Azimuth Time Altitude Azimuth Time Altitude Azimuth
Timation 2 Rocket 4.3 17:31:58 10° NNW 17:38:41 54° ENE 17:45:23 10° SE
NOSS 2-1 (D) 3.4 17:35:49 10° SW 17:39:36 79° WNW 17:43:43 10° NNE
SPOT 3 Rocket 3.7 17:34:57 10° SSE 17:39:57 51° ENE 17:44:56 10° N
NOSS 2-1 (C) 3.4 17:36:28 10° SSW 17:40:17 81° WNW 17:44:25 10° NNE
BREEZE M DEB (TANK) 3.7 17:26:47 10° SW 17:40:33 84° NW 17:44:17 10° NE
COSMOS 2487 2.4 17:39:47 10° NNW 17:43:23 75° ENE 17:46:56 10° SSE
NOSS 7 (D) 4.5 17:43:54 10° SSW 17:47:34 65° ESE 17:50:53 10° NE
Meteor 2-4 Rocket 4.3 17:45:50 10° SSE 17:50:36 34° E 17:55:21 10° NNE
Nadezhda 3 Rocket 4.0 17:47:39 10° S 17:53:48 70° E 18:00:03 10° NNE
Cosmos 1455 Rocket 4.3 17:49:55 10° NNW 17:54:10 47° W 17:58:26 10° SSW
Meteor 1-13 Rocket 4.3 17:49:36 10° S 17:55:15 72° E 18:01:04 10° NNE
Cosmos 1975 3.2 17:51:36 10° NNW 17:55:37 69° W 17:59:36 10° S
Delta 2 Rocket 2.9 17:53:53 10° W 17:57:22 79° N 18:01:05 11° E
NOSS 2-1 (E) 4.0 17:55:17 10° SW 17:59:02 53° NW 18:03:11 10° NNE
Cosmos 1340 4.3 17:59:11 10° SE 18:01:32 16° E 18:02:53 13° ENE
SKYMED 2 4.1 17:59:35 10° NNE 18:03:39 38° E 18:07:41 10° SSE
MOS 1 4.3 17:59:00 10° SSE 18:04:39 88° WSW 18:10:20 10° NNW
CZ-4 R/B 2.1 18:02:46 10° S 18:06:53 59° W 18:10:57 10° NNW
GRACE-2 3.8 18:07:38 10° S 18:10:22 64° E 18:13:07 10° N
GRACE-1 3.7 18:08:03 10° S 18:10:47 66° E 18:13:33 10° N
CZ-4 R/B 4.4 18:07:06 10° SSE 18:11:13 73° ENE 18:15:22 10° N
MONITOR-E 4.4 18:10:01 10° SSE 18:13:06 49° ENE 18:16:12 10° N
IDEFIX/ARIANE 42P 2.8 18:08:13 10° S 18:13:24 75° WSW 18:18:35 10° NNW
MSX 3.8 18:07:46 10° SSE 18:13:29 72° ENE 18:19:12 10° N
Cosmos 1892 Rocket 4.3 18:09:51 10° SSE 18:13:39 30° E 18:17:16 11° NNE
COSMOS 2441 4.4 18:09:58 10° SSE 18:14:45 61° ENE 18:19:36 10° N
Thor Agena Rocket 4.3 18:10:00 10° N 18:15:07 56° WNW 18:20:16 10° SSW
CZ-2C R/B 2.9 18:10:34 10° S 18:15:32 68° W 18:20:41 10° NNW
USA 234 3.7 18:12:12 10° NE 18:18:37 60° NW 18:25:00 10° WSW
Cosmos 1726 Rocket 4.2 18:18:08 10° NNE 18:22:09 32° ENE 18:26:09 10° SE
Okean 1-7 Rocket 4.1 18:19:22 10° SSW 18:23:49 63° W 18:28:15 10° N
Cosmos 1666 2.9 18:21:09 10° N 18:24:54 46° E 18:28:39 10° SSE
SMAP 4.0 18:21:57 10° S 18:26:27 50° W 18:30:59 10° NNW
Cosmos 1833 Rocket 3.0 18:30:42 10° NNW 18:36:18 69° WSW 18:41:51 10° S
Tiangong 1 2.9 18:34:05 10° NW 18:36:16 18° N 18:36:16 18° N
NOSS 3-4 (A) 3.8 18:30:11 10° NNW 18:37:14 64° ENE 18:44:41 10° SE
NOSS 3-4 (C) 3.8 18:30:17 10° NNW 18:37:21 63° ENE 18:44:47 10° SE
Cosmos 1934 Rocket 3.9 18:31:22 10° N 18:37:35 66° E 18:43:51 10° SSE
Cosmos 1606 Rocket 3.5 18:37:42 10° N 18:42:11 68° E 18:46:37 10° SSE
BREEZE M DEB (TANK) 4.2 18:40:22 10° NNW 18:44:34 40° NE 18:50:56 21° E
Cosmos 2082 Rocket 3.4 18:42:28 10° NW 18:47:50 45° WSW 18:53:12 10° S
Cosmos 407 Rocket 3.5 18:43:39 10° N 18:48:42 56° ENE 18:53:47 10° SSE
Cosmos 2056 Rocket 4.2 18:44:06 10° SSW 18:49:21 55° WNW 18:54:34 10° N
Cosmos 1025 Rocket 4.0 18:46:13 10° SSW 18:50:26 48° W 18:54:42 10° N
Cosmos 1743 4.5 18:47:55 10° NNW 18:51:25 33° W 18:54:53 10° SSW
COSMO-SKYMED 1 3.2 18:47:29 10° N 18:51:43 54° WNW 18:55:57 10° SSW
Meteor 1-28 Rocket 3.1 18:51:38 27° N 18:53:38 87° W 18:57:23 10° SSW
OAO 2 Rocket 4.2 18:53:41 10° SW 18:58:21 34° SSE 18:59:27 31° SE
Cosmos 676 Rocket 4.0 18:56:22 10° N 19:01:25 51° ENE 19:02:36 42° ESE
Orbus 7S? 3.4 18:59:23 10° SW 19:01:28 45° SW 19:01:28 45° SW
NOAA 12 4.0 19:08:33 10° SSE 19:13:50 90° NNW 19:19:06 10° NNW
Cosmos 1153 Rocket 4.3 19:13:04 10° N 19:19:11 66° E 19:25:15 10° SSE
Cosmos 2058 Rocket 3.2 19:15:53 10° NNW 19:20:19 70° W 19:24:42 10° S
Cosmos 2369 Rocket 2.1 19:15:25 10° SSW 19:21:05 84° WNW 19:22:50 47° NNE
Cosmos 1605 Rocket 4.1 19:18:49 10° N 19:25:03 74° W 19:31:10 10° S
ATLAS 3B CENTAUR R/B 3.9 19:14:01 10° W 19:33:34 55° SSW 19:37:23 33° SE
Cosmos 1452 Rocket 4.4 19:33:08 10° SW 19:38:10 47° WNW 19:39:51 35° NNW
Cosmos 1943 Rocket 3.1 19:40:11 10° S 19:43:25 36° S 19:43:25 36° S
FALCON 9 R/B 3.0 19:58:37 10° W 20:13:37 74° WSW 20:13:37 74° WSW
